Вернуться в каталог

WARATAH SEED-1

АктивенНаукаSSO
NORAD 60469·PAYLOAD·🇦🇺 Australia

Запущен Aug 16, 2024 с Vandenberg Space Force Base

Loading…

Ближайшие Пролёты (ближайшие 24 часа)

TLE

СвежийSource: Space-Track

Эпоха: Sep 13, 2026, 17:15 UTC

1 60469U 24149B   26256.71921512  .00010194  00000-0  27522-3 0  9990
2 60469  97.3635 337.4780 0000279 233.7165 126.4055 15.37958518115717

Отслеживайте WARATAH SEED-1 в реальном времени с AllMySat

Download on the App Store